Hourly Weather Plymouth

Today, 9 July, Thursday

Time Temperature Precipitation Wind Pressure Humidity
00:00 +15°C° 0 mm 7 mps 760 mmHg 96%
01:00 +15°C° 0.1 mm 8 mps 759 mmHg 96%
02:00 +16°C° 0.1 mm 8 mps 759 mmHg 97%
03:00 +16°C° 0.1 mm 9 mps 758 mmHg 97%
04:00 +16°C° 0.1 mm 8 mps 758 mmHg 96%
05:00 +16°C° 0.1 mm 8 mps 758 mmHg 96%
06:00 +16°C° 0.1 mm 7 mps 758 mmHg 96%
07:00 +16°C° 0 mm 7 mps 758 mmHg 95%
08:00 +16°C° 0 mm 6 mps 758 mmHg 94%
09:00 +17°C° 0 mm 5 mps 758 mmHg 94%
10:00 +17°C° 0.1 mm 5 mps 758 mmHg 93%
11:00 +17°C° 0.1 mm 5 mps 758 mmHg 93%
12:00 +17°C° 0.1 mm 5 mps 758 mmHg 93%
13:00 +17°C° 0.1 mm 5 mps 758 mmHg 93%
14:00 +17°C° 0.1 mm 5 mps 758 mmHg 93%
15:00 +17°C° 0.1 mm 5 mps 758 mmHg 93%
16:00 +16°C° 0 mm 5 mps 758 mmHg 93%
17:00 +16°C° 0 mm 5 mps 758 mmHg 93%
18:00 +16°C° 0 mm 5 mps 758 mmHg 93%
19:00 +15°C° 0 mm 5 mps 758 mmHg 93%
20:00 +14°C° 0 mm 5 mps 759 mmHg 94%
21:00 +13°C° 0 mm 5 mps 759 mmHg 95%
22:00 +13°C° 0 mm 5 mps 759 mmHg 95%
23:00 +13°C° 0 mm 6 mps 760 mmHg 95%

Tomorrow, 10 July, Friday

Time Temperature Precipitation Wind Pressure Humidity
00:00 +13°C° 0 mm 6 mps 760 mmHg 95%
01:00 +13°C° 0 mm 6 mps 760 mmHg 95%
02:00 +12°C° 0 mm 5 mps 760 mmHg 96%
03:00 +12°C° 0 mm 4 mps 760 mmHg 96%
04:00 +12°C° 0 mm 4 mps 761 mmHg 95%
05:00 +12°C° 0 mm 4 mps 761 mmHg 94%
06:00 +12°C° 0 mm 4 mps 761 mmHg 93%
07:00 +13°C° 0 mm 5 mps 762 mmHg 86%
08:00 +14°C° 0 mm 5 mps 762 mmHg 78%
09:00 +15°C° 0 mm 6 mps 763 mmHg 71%
10:00 +15°C° 0 mm 6 mps 763 mmHg 68%
11:00 +16°C° 0 mm 6 mps 764 mmHg 66%
12:00 +16°C° 0 mm 6 mps 764 mmHg 63%
13:00 +16°C° 0 mm 6 mps 764 mmHg 63%
14:00 +16°C° 0 mm 6 mps 764 mmHg 64%
15:00 +16°C° 0 mm 6 mps 765 mmHg 64%
16:00 +15°C° 0 mm 6 mps 765 mmHg 67%
17:00 +15°C° 0 mm 6 mps 765 mmHg 69%
18:00 +14°C° 0 mm 6 mps 765 mmHg 72%
19:00 +13°C° 0 mm 5 mps 766 mmHg 78%
20:00 +11°C° 0 mm 4 mps 766 mmHg 84%
21:00 +10°C° 0 mm 4 mps 766 mmHg 91%
22:00 +10°C° 0 mm 4 mps 766 mmHg 91%
23:00 +10°C° 0 mm 4 mps 767 mmHg 92%

Day after tomorrow, 11 July, Saturday

Time Temperature Precipitation Wind Pressure Humidity
00:00 +10°C° 0 mm 4 mps 767 mmHg 93%
01:00 +10°C° 0 mm 3 mps 767 mmHg 93%
02:00 +10°C° 0 mm 3 mps 767 mmHg 94%
03:00 +10°C° 0 mm 3 mps 767 mmHg 94%
04:00 +11°C° 0 mm 3 mps 767 mmHg 93%
05:00 +12°C° 0 mm 2 mps 767 mmHg 92%
06:00 +13°C° 0 mm 2 mps 768 mmHg 91%
07:00 +14°C° 0 mm 2 mps 768 mmHg 85%
08:00 +16°C° 0 mm 2 mps 768 mmHg 78%
09:00 +17°C° 0 mm 2 mps 769 mmHg 71%
10:00 +18°C° 0 mm 2 mps 769 mmHg 67%
11:00 +19°C° 0 mm 2 mps 769 mmHg 64%
12:00 +19°C° 0 mm 2 mps 769 mmHg 60%
13:00 +19°C° 0 mm 2 mps 769 mmHg 60%
14:00 +20°C° 0 mm 3 mps 769 mmHg 60%
15:00 +20°C° 0 mm 3 mps 769 mmHg 60%
16:00 +19°C° 0 mm 3 mps 769 mmHg 65%
17:00 +18°C° 0 mm 3 mps 769 mmHg 69%
18:00 +17°C° 0 mm 3 mps 769 mmHg 74%
19:00 +14°C° 0 mm 3 mps 769 mmHg 80%
20:00 +13°C° 0 mm 3 mps 770 mmHg 85%
21:00 +11°C° 0 mm 3 mps 770 mmHg 91%
22:00 +10°C° 0 mm 3 mps 770 mmHg 90%
23:00 +10°C° 0 mm 3 mps 770 mmHg 88%

12 July, Sunday

Time Temperature Precipitation Wind Pressure Humidity
00:00 +10°C° 0 mm 2 mps 769 mmHg 87%
01:00 +9°C° 0 mm 2 mps 769 mmHg 87%
02:00 +9°C° 0 mm 2 mps 769 mmHg 86%
03:00 +9°C° 0 mm 2 mps 769 mmHg 86%
04:00 +10°C° 0 mm 2 mps 769 mmHg 85%
05:00 +12°C° 0 mm 2 mps 769 mmHg 84%
06:00 +13°C° 0 mm 2 mps 769 mmHg 83%
07:00 +15°C° 0 mm 2 mps 769 mmHg 78%
08:00 +16°C° 0 mm 2 mps 769 mmHg 73%
09:00 +19°C° 0 mm 1 mps 769 mmHg 68%
10:00 +19°C° 0 mm 2 mps 770 mmHg 66%
11:00 +19°C° 0 mm 2 mps 770 mmHg 64%
12:00 +20°C° 0 mm 2 mps 770 mmHg 62%
13:00 +20°C° 0 mm 2 mps 769 mmHg 63%
14:00 +20°C° 0 mm 2 mps 769 mmHg 65%
15:00 +20°C° 0 mm 2 mps 769 mmHg 67%
16:00 +21°C° 0 mm 1 mps 769 mmHg 69%
17:00 +20°C° 0 mm 1 mps 769 mmHg 72%
18:00 +20°C° 0 mm 1 mps 768 mmHg 74%
19:00 +18°C° 0 mm 1 mps 768 mmHg 78%
20:00 +15°C° 0 mm 1 mps 769 mmHg 83%
21:00 +14°C° 0 mm 1 mps 769 mmHg 87%
22:00 +13°C° 0 mm 1 mps 768 mmHg 86%
23:00 +13°C° 0 mm 1 mps 768 mmHg 85%

13 July, Monday

Time Temperature Precipitation Wind Pressure Humidity
00:00 +13°C° 0 mm 1 mps 768 mmHg 84%
01:00 +12°C° 0 mm 1 mps 768 mmHg 84%
02:00 +12°C° 0 mm 1 mps 767 mmHg 84%
03:00 +12°C° 0 mm 1 mps 767 mmHg 85%
04:00 +13°C° 0 mm 1 mps 767 mmHg 84%
05:00 +13°C° 0 mm 0 mps 766 mmHg 83%
06:00 +14°C° 0 mm 0 mps 766 mmHg 83%
07:00 +16°C° 0 mm 1 mps 766 mmHg 79%
08:00 +18°C° 0 mm 1 mps 766 mmHg 75%
09:00 +19°C° 0 mm 1 mps 766 mmHg 71%
10:00 +19°C° 0 mm 1 mps 766 mmHg 71%
11:00 +18°C° 0 mm 2 mps 766 mmHg 70%
12:00 +19°C° 0 mm 2 mps 766 mmHg 69%
13:00 +19°C° 0 mm 2 mps 765 mmHg 69%
14:00 +19°C° 0 mm 3 mps 765 mmHg 69%
15:00 +19°C° 0 mm 3 mps 764 mmHg 69%
16:00 +18°C° 0 mm 3 mps 764 mmHg 74%
17:00 +17°C° 0 mm 3 mps 764 mmHg 78%
18:00 +15°C° 0 mm 4 mps 764 mmHg 82%
19:00 +14°C° 0 mm 3 mps 764 mmHg 86%
20:00 +14°C° 0 mm 3 mps 763 mmHg 89%
21:00 +13°C° 0 mm 3 mps 763 mmHg 93%
22:00 +12°C° 0 mm 3 mps 763 mmHg 94%
23:00 +12°C° 0 mm 3 mps 763 mmHg 96%

14 July, Tuesday

Time Temperature Precipitation Wind Pressure Humidity
00:00 +12°C° 0 mm 3 mps 763 mmHg 97%
01:00 +12°C° 0 mm 3 mps 763 mmHg 97%
02:00 +12°C° 0 mm 3 mps 762 mmHg 97%
03:00 +13°C° 0 mm 3 mps 762 mmHg 96%
04:00 +12°C° 0 mm 3 mps 762 mmHg 96%
05:00 +12°C° 0 mm 4 mps 762 mmHg 95%
06:00 +12°C° 0 mm 4 mps 762 mmHg 94%
07:00 +13°C° 0 mm 4 mps 763 mmHg 90%
08:00 +14°C° 0 mm 4 mps 763 mmHg 86%
09:00 +15°C° 0 mm 4 mps 763 mmHg 82%
10:00 +15°C° 0 mm 5 mps 763 mmHg 81%
11:00 +16°C° 0 mm 5 mps 763 mmHg 79%
12:00 +16°C° 0 mm 5 mps 763 mmHg 78%
13:00 +16°C° 0 mm 5 mps 763 mmHg 77%
14:00 +16°C° 0 mm 6 mps 763 mmHg 75%
15:00 +17°C° 0 mm 6 mps 762 mmHg 74%
16:00 +16°C° 0 mm 6 mps 762 mmHg 77%
17:00 +16°C° 0 mm 6 mps 762 mmHg 80%
18:00 +15°C° 0 mm 5 mps 762 mmHg 83%
19:00 +15°C° 0 mm 5 mps 762 mmHg 86%
20:00 +14°C° 0 mm 5 mps 762 mmHg 90%
21:00 +14°C° 0 mm 4 mps 762 mmHg 93%
22:00 +14°C° 0 mm 4 mps 762 mmHg 93%
23:00 +14°C° 0 mm 4 mps 762 mmHg 94%
Show more